Location: Buchdorf
(48.7842°N, 10.8275°E)
Time: 18:16:04
(UTC+00:00)

STARLINK-1192 - Pass Details

Date: 09 April 2020
Orbit: 549 x 550 km, 53.0° (Epoch: 26 May)

Event Time Altitude Azimuth Distance (km) Brightness Sun altitude
Rises 19:34:58 0° 294° (WNW) 2,733 9.0 -15.2°
Reaches altitude 10° 19:37:12 10° 294° (WNW) 1,837 7.6 -15.5°
Maximum altitude 19:41:24 87° 207° (SSW) 560 3.6 -16.1°
Enters shadow 19:43:12 33° 119° (ESE) 940 4.2 -16.4°
